Tracking 29892 objects as of 21-Nov-2024
HD Live streaming from Space Station
objects crossing your sky now

FLOCK 4Q 31

Track FLOCK 4Q 31 now!
10-day predictions
FLOCK 4Q 31 is classified as:


NORAD ID: 58285
Int'l Code: 2023-174AF
Perigee: 487.4 km
Apogee: 502.1 km
Inclination: 97.4 °
Period: 94.4 minutes
Semi major axis: 6865 km
RCS: Unknown
Launch date: November 11, 2023
Source: United States (US)
Launch site: AIR FORCE WESTERN TEST RANGE (AFWTR)
Your satellite tracking list
Your tracking list is empty




NASA's NSSDC Master Catalog

Two Line Element Set (TLE):
1 58285U 23174AF  24325.87962273  .00014393  00000-0  56027-3 0  9998
2 58285  97.4461  39.5711 0010733  50.1772 310.0409 15.26053914 57569
Source of the keplerian elements: AFSPC